AirNav   Everest Fuels
 
 956 users online  

FL69 Grande Oaks Golf Club Heliport
Davie, Florida, USA

GOING TO DAVIE?


FAA INFORMATION EFFECTIVE 21 MAY 2020

Location

FAA Identifier: FL69
Lat/Long: 26-04-47.3200N 080-15-17.1700W
26-04.788667N 080-15.286167W
26.0798111,-80.2547694
(estimated)
Elevation: 10 ft. / 3 m (estimated)
Variation: 05W (2000)
Time zone: UTC -4 (UTC -5 during Standard Time)
Zip code: 33328

Heliport Operations

Heliport use: Private use. Permission required prior to landing
Activation date: 02/2001
Control tower: no
ARTCC: MIAMI CENTER
FSS: MIAMI FLIGHT SERVICE STATION
Attendance: 0800-1600
Wind indicator: yes
Segmented circle: no

Heliport Communications

WX ASOS at HWO (5 nm S): PHONE 954-983-5904
WX ASOS at FLL (6 nm E): PHONE 954-359-7857
WX ASOS at FXE (8 nm NE): PHONE 954-772-2537
WX ASOS at OPF (10 nm S): 125.9 (305-681-4063)
WX ASOS at PMP (13 nm NE): PHONE 954-783-3720
WX ASOS at MIA (17 nm S): 119.15 (305-870-0235)
WX AWOS-3 at BCT (20 nm NE): 121.125 (561-391-2696)

Nearby radio navigation aids

VOR radial/distance  VOR name  Freq  Var
FLLr280/4.8FORT LAUDERDALE VOR/DME114.4006W
DHPr021/17.5DOLPHIN VORTAC113.9004W
VKZr349/20.4VIRGINIA KEY VOR/DME117.1004W
PBIr197/37.1PALM BEACH VORTAC115.7003W

Heliport Services

Runway Information

Helipad H1

Dimensions: 50 x 50 ft. / 15 x 15 m
Surface: turf
Operational restrictions: CIRCULAR HELIPAD.
Traffic pattern: leftleft

Heliport Ownership and Management from official FAA records

Ownership: Privately-owned
Owner: FLORIDA GOLF MANAGEMENT, INC
3201 ROLLING HILLS CIRCLE
DAVIE, FL 33329
Phone 954-916-2900
Manager: ED CAREY
3201 ROLLING HILLS CIRCLE
DAVIE, FL 33328
Phone 954-916-2900

Heliport Operational Statistics

Aircraft based on the field: 1
Helicopters: 1
    

Additional Remarks

FOR CD CTC MIAMI APCH AT 305-869-5432.

Instrument Procedures

There are no published instrument procedures at FL69.

Some nearby airports with instrument procedures:

KHWO - North Perry Airport (5 nm S)
KFLL - Fort Lauderdale/Hollywood International Airport (6 nm E)
KFXE - Fort Lauderdale Executive Airport (8 nm NE)
KOPF - Miami-Opa Locka Executive Airport (10 nm S)
KPMP - Pompano Beach Airpark (13 nm NE)
KMIA - Miami International Airport (17 nm S)
KBCT - Boca Raton Airport (20 nm NE)
 
Loc | Ops | Rwys | IFR | FBO | Links
Com | Nav | Svcs | Stats | Notes

Reliance Aviation
AirBoss

 
Area around FL69 (Grande Oaks Golf Club Heliport)
 
Road maps at: MapQuest Bing Google
 
Aerial photo
No photo
 
Sectional chart

 
Airport distance calculator
Flying to Grande Oaks Golf Club Heliport? Find the distance to fly.

From to FL69

Sunrise and sunset
Times for 06-Jun-2020
 Local
(UTC-4)
 Zulu
(UTC)
Morning civil twilight06:0310:03
Sunrise06:2910:29
Sunset20:1000:10
Evening civil twilight20:3600:36

Current date and time
Zulu (UTC)  06-Jun-2020 13:55:19
Local (UTC-4)  06-Jun-2020 09:55:19
 
METAR
KHWO 
5nm S 
061253Z 13012G18KT 10SM BKN019 OVC028 A3000 RMK AO2 SLP160
KFLL 
6nm E 
061253Z 14017G22KT 10SM SCT021 BKN029 BKN200 29/26 A2999 RMK AO2 SLP153 T02890256
KFXE 
8nm NE 
061302Z AUTO 14014G21KT 10SM SCT019 BKN029 28/25 A3000 RMK AO2 T02830250 $
KOPF 
10nm S 
061340Z 14015G21KT 10SM SCT021 BKN030 29/26 A3000 RMK AO2 T02890256
KPMP 
13nm NE 
061335Z 14016G21KT 8SM SCT020 BKN030 27/25 A3000 RMK AO2 T02670250 $
KMIA 
18nm S 
061253Z 12013G21KT 10SM SCT015 BKN023 OVC030 28/26 A2999 RMK AO2 SLP155 T02830256
TAF
KFLL 
6nm E 
061153Z 0612/0718 12011KT P6SM VCSH FEW015 SCT025 BKN050 FM061400 15015KT P6SM VCTS SCT025CB BKN035 FM062100 15007KT P6SM FEW025 SCT050 BKN150 FM071200 16010KT P6SM SCT030 BKN100
KFXE 
8nm NE 
061153Z 0612/0712 12011KT P6SM VCSH FEW015 SCT025 BKN050 FM061400 15015KT P6SM VCTS SCT025CB BKN035 FM062100 15007KT P6SM FEW025 SCT050 BKN150
KOPF 
10nm S 
061153Z 0612/0712 12011KT P6SM VCSH FEW015 SCT025 BKN050 FM061400 15015KT P6SM VCTS SCT025CB BKN035 FM062100 15007KT P6SM FEW025 SCT050 BKN150
KMIA 
18nm S 
061153Z 0612/0718 12011KT P6SM VCSH FEW015 SCT025 BKN050 FM061400 15015KT P6SM VCTS SCT025CB BKN035 FM062100 15007KT P6SM FEW025 SCT050 BKN150 FM071200 16010KT P6SM SCT030 BKN100
NOTAMs
Click for the latest NOTAMs
NOTAMs are issued by the DoD/FAA and will open in a separate window not controlled by AirNav.

 

 
 

Would you like to see your business listed on this page?

 If your business provides an interesting product or service to pilots, flight crews, aircraft, or users of the Grande Oaks Golf Club Heliport, you should consider listing it here.  To start the listing process, click on the button below
 
Add a business
 

Other Pages about Grande Oaks Golf Club Heliport

Update a link
 
Copyright © AirNav, LLC. All rights reserved. Privacy Policy  Contact